Location: Camp at the Woods
(43.2055°N, 93.0905°W)
Time: 09:40:25
(UTC+00:00)

BlueWalker 3 - Pass Details

Date: 17 April 2024
Orbit: 482 x 494 km, 53.2° (Epoch: 22 May)

Event Time Altitude Azimuth Distance (km) Brightness Sun altitude
Rises 02:01:58 0° 205° (SSW) 2,555 5.5 -11.8°
Reaches altitude 10° 02:04:19 10° 194° (SSW) 1,681 4.5 -12.2°
Maximum altitude 02:07:37 29° 133° (SE) 941 2.8 -12.7°
Enters shadow 02:09:46 17° 84° (E) 1,312 3.6 -13.1°
